This is the latest recevied weather packets stored in our database for station/object WX6HNX-2. If no packets are shown the sender has not sent any weather packets the latest 10 day(s).
| Time | Temp. | Humidity | Pressure | Rain* | Wind** | Luminosity | Snow |
|---|---|---|---|---|---|---|---|
| 1777509472 | 22.78° C | 45% | 1015.2 hPa | 0 mm | - | - | - |
| 1777509232 | 22.78° C | 45% | 1015.3 hPa | 0 mm | - | - | - |
| 1777508992 | 22.78° C | 43% | 1015.3 hPa | 0 mm | - | - | - |
| 1777508752 | 22.78° C | 43% | 1015.3 hPa | 0 mm | - | - | - |
| 1777508272 | 22.78° C | 46% | 1015.3 hPa | 0 mm | - | - | - |
| 1777507882 | 22.78° C | 45% | 1015.4 hPa | 0 mm | - | - | - |
| 1777507642 | 23.33° C | 43% | 1015.4 hPa | 0 mm | - | - | - |
| 1777507402 | 23.33° C | 43% | 1015.4 hPa | 0 mm | - | - | - |
| 1777507163 | 23.33° C | 44% | 1015.5 hPa | 0 mm | - | - | - |
| 1777506922 | 23.33° C | 45% | 1015.4 hPa | 0 mm | - | - | - |
| 1777506682 | 23.33° C | 45% | 1015.4 hPa | 0 mm | - | - | - |
| 1777506442 | 22.78° C | 45% | 1015.4 hPa | 0 mm | - | - | - |
| 1777506202 | 22.78° C | 46% | 1015.5 hPa | 0 mm | - | - | - |
| 1777505963 | 23.33° C | 43% | 1015.5 hPa | 0 mm | - | - | - |
| 1777505722 | 23.33° C | 45% | 1015.5 hPa | 0 mm | - | - | - |
| 1777505482 | 22.78° C | 45% | 1015.5 hPa | 0 mm | - | - | - |
| 1777505243 | 22.78° C | 45% | 1015.7 hPa | 0 mm | - | - | - |
| 1777505002 | 22.78° C | 46% | 1015.6 hPa | 0 mm | - | - | - |
| 1777504762 | 22.78° C | 46% | 1015.8 hPa | 0 mm | - | - | - |
| 1777504523 | 22.78° C | 46% | 1015.7 hPa | 0 mm | - | - | - |
| 1777504282 | 22.78° C | 44% | 1015.8 hPa | 0 mm | - | - | - |
| 1777503889 | 22.78° C | 47% | 1015 hPa | 0 mm | - | - | - |
| 1777503407 | 22.78° C | 47% | 1015.2 hPa | 0 mm | - | - | - |
| 1777503167 | 22.78° C | 46% | 1015.2 hPa | 0 mm | - | - | - |
| 1777502687 | 22.78° C | 46% | 1015.4 hPa | 0 mm | - | - | - |
* Rain latest hour (hover to see other rain measurements)
** Current wind speed in m/s (hover to see current wind gust speed)